Weather History for KESC - March, 2015

Change the Weather History Date:

Thursday, March 26, 2015

  Actual Average Record
Temperature  
Mean Temperature 28 °F -  
Max Temperature 37 °F 37 °F 69 °F (2007)
Min Temperature 19 °F 22 °F 0 °F (2014)
Degree Days  
Heating Degree Days 37    
Moisture  
Dew Point 17 °F    
Average Humidity 60    
Maximum Humidity 70    
Minimum Humidity 49    
Precipitation  
Precipitation 0.00 in - - ()
Sea Level Pressure  
Sea Level Pressure 29.93 in    
Wind  
Wind Speed 11 mph (NW)    
Max Wind Speed 21 mph    
Max Gust Speed 29 mph    
Visibility 10 miles    
Events      
Averages and records for this station are not official NWS values.
T = Trace of Precipitation, MM = Missing Value Source: NWS Daily Summary

Daily Weather History Graph

Daily Weather History Graph

Search for Another Location

Airport or City:

Trip Planner

Search our weather history database for the weather conditions in past years. The results will help you decide how hot, cold, wet, or windy it might be!

Date:

Astronomy

Mar. 26, 2015 Rise Set
Actual Time 7:40 AM EDT 8:08 PM EDT
Civil Twilight 7:10 AM EDT 8:38 PM EDT
Nautical Twilight 6:35 AM EDT 9:13 PM EDT
Astronomical Twilight 5:58 AM EDT 9:50 PM EDT
Moon 12:06 PM EDT (3/26) 2:22 AM EDT (3/26)
Length of Visible Light 13h 27m
Length of Day
12h 28m
Waxing Crescent, 43% of the Moon is Illuminated
Mar 26
Waxing Crescent
Mar 27
First Quarter
Apr 4
Full
Apr 11
Last Quarter
Apr 18
New

Hourly Weather History & Observations

Time (EDT) Temp. Windchill Dew Point Humidity Pressure Visibility Wind Dir Wind Speed Gust Speed Precip Events Conditions
12:15 AM 37.4 °F 30.8 °F 28.4 °F 70% 29.81 in 10.0 mi WSW 9.2 mph - N/A   Overcast
12:35 AM 37.4 °F 30.8 °F 28.4 °F 70% 29.81 in 10.0 mi West 9.2 mph - N/A   Overcast
12:55 AM 37.4 °F 30.8 °F 28.4 °F 70% 29.82 in 10.0 mi West 9.2 mph - N/A   Overcast
1:15 AM 37.4 °F 30.8 °F 28.4 °F 70% 29.83 in 10.0 mi West 9.2 mph 17.3 mph N/A   Overcast
1:35 AM 37.4 °F 29.8 °F 28.4 °F 70% 29.83 in 10.0 mi West 11.5 mph - N/A   Overcast
1:55 AM 37.4 °F 30.8 °F 26.6 °F 65% 29.83 in 10.0 mi West 9.2 mph - N/A   Overcast
2:15 AM 37.4 °F 29.3 °F 26.6 °F 65% 29.84 in 10.0 mi West 12.7 mph 16.1 mph N/A   Overcast
2:35 AM 37.4 °F 29.3 °F 26.6 °F 65% 29.84 in 10.0 mi West 12.7 mph 18.4 mph N/A   Overcast
2:55 AM 37.4 °F 29.8 °F 26.6 °F 65% 29.84 in 10.0 mi West 11.5 mph - N/A   Overcast
3:15 AM 37.4 °F 29.8 °F 24.8 °F 60% 29.83 in 10.0 mi West 11.5 mph - N/A   Overcast
3:35 AM 35.6 °F 28.0 °F 24.8 °F 65% 29.83 in 10.0 mi West 10.4 mph - N/A   Overcast
3:55 AM 35.6 °F 28.6 °F 24.8 °F 65% 29.84 in 10.0 mi WSW 9.2 mph - N/A   Overcast
4:15 AM 35.6 °F 28.0 °F 24.8 °F 65% 29.84 in 10.0 mi WSW 10.4 mph - N/A   Overcast
4:35 AM 35.6 °F 28.6 °F 24.8 °F 65% 29.84 in 10.0 mi WSW 9.2 mph - N/A   Overcast
4:55 AM 35.6 °F 29.2 °F 24.8 °F 65% 29.84 in 10.0 mi West 8.1 mph - N/A   Overcast
5:15 AM 35.6 °F 30.7 °F 24.8 °F 65% 29.83 in 10.0 mi West 5.8 mph - N/A   Overcast
5:35 AM 35.6 °F 28.0 °F 24.8 °F 65% 29.82 in 10.0 mi West 10.4 mph - N/A   Overcast
5:55 AM 35.6 °F 28.6 °F 24.8 °F 65% 29.82 in 10.0 mi WNW 9.2 mph 16.1 mph N/A   Overcast
6:15 AM 35.6 °F 28.6 °F 24.8 °F 65% 29.81 in 10.0 mi NW 9.2 mph - N/A   Overcast
6:35 AM 35.6 °F 26.6 °F 23.0 °F 60% 29.81 in 10.0 mi WNW 13.8 mph - N/A   Overcast
6:55 AM 35.6 °F 27.5 °F 21.2 °F 56% 29.81 in 10.0 mi WNW 11.5 mph - N/A   Overcast
7:15 AM 35.6 °F 28.0 °F 21.2 °F 56% 29.81 in 10.0 mi WNW 10.4 mph 16.1 mph N/A   Overcast
7:35 AM 33.8 °F 22.2 °F 21.2 °F 60% 29.81 in 10.0 mi WNW 20.7 mph 28.8 mph N/A   Overcast
7:55 AM 33.8 °F 23.5 °F 21.2 °F 60% 29.82 in 10.0 mi WNW 16.1 mph 24.2 mph N/A   Overcast
8:15 AM 33.8 °F 25.8 °F 21.2 °F 60% 29.83 in 10.0 mi WNW 10.4 mph 23.0 mph N/A   Overcast
8:35 AM 33.8 °F 23.9 °F 21.2 °F 60% 29.84 in 10.0 mi NW 15.0 mph 24.2 mph N/A   Overcast
8:55 AM 32.0 °F 21.2 °F 21.2 °F 64% 29.84 in 10.0 mi NW 16.1 mph 23.0 mph N/A   Overcast
9:15 AM 32.0 °F 20.8 °F 21.2 °F 64% 29.84 in 10.0 mi NW 17.3 mph 23.0 mph N/A   Overcast
9:35 AM 32.0 °F 21.6 °F 21.2 °F 64% 29.86 in 10.0 mi NW 15.0 mph 20.7 mph N/A   Overcast
9:55 AM 32.0 °F 22.1 °F 21.2 °F 64% 29.87 in 10.0 mi NW 13.8 mph 21.9 mph N/A   Overcast
10:15 AM 30.2 °F 20.8 °F 19.4 °F 64% 29.89 in 10.0 mi North 11.5 mph 20.7 mph N/A   Overcast
10:35 AM 28.4 °F 17.5 °F 19.4 °F 69% 29.91 in 10.0 mi North 13.8 mph 20.7 mph N/A   Overcast
10:55 AM 28.4 °F 18.0 °F 17.6 °F 64% 29.91 in 10.0 mi North 12.7 mph 17.3 mph N/A   Overcast
11:15 AM 28.4 °F 16.2 °F 17.6 °F 64% 29.92 in 10.0 mi NNW 17.3 mph 24.2 mph N/A   Overcast
11:35 AM 28.4 °F 18.5 °F 17.6 °F 64% 29.92 in 8.0 mi NW 11.5 mph 19.6 mph N/A   Overcast
11:55 AM 28.4 °F 18.0 °F 15.8 °F 59% 29.93 in 10.0 mi North 12.7 mph 20.7 mph N/A   Overcast
12:15 PM 28.4 °F 18.5 °F 14.0 °F 55% 29.93 in 10.0 mi NNW 11.5 mph 21.9 mph N/A   Overcast
12:35 PM 28.4 °F 18.5 °F 15.8 °F 59% 29.93 in 10.0 mi NNW 11.5 mph 20.7 mph N/A   Overcast
12:55 PM 28.4 °F 18.0 °F 15.8 °F 59% 29.94 in 10.0 mi NNW 12.7 mph 21.9 mph N/A   Overcast
1:15 PM 28.4 °F 18.5 °F 15.8 °F 59% 29.94 in 10.0 mi NNW 11.5 mph 20.7 mph N/A   Overcast
1:35 PM 28.4 °F 18.0 °F 15.8 °F 59% 29.94 in 10.0 mi NNW 12.7 mph 17.3 mph N/A   Overcast
1:55 PM 28.4 °F 18.0 °F 15.8 °F 59% 29.94 in 10.0 mi NNW 12.7 mph 19.6 mph N/A   Overcast
2:15 PM 28.4 °F 17.0 °F 14.0 °F 55% 29.95 in 10.0 mi NNW 15.0 mph 23.0 mph N/A   Overcast
2:35 PM 28.4 °F 16.2 °F 12.2 °F 51% 29.95 in 10.0 mi North 17.3 mph 24.2 mph N/A   Overcast
2:55 PM 28.4 °F 18.5 °F 12.2 °F 51% 29.95 in 10.0 mi NNW 11.5 mph 21.9 mph N/A   Overcast
3:15 PM 26.6 °F 15.2 °F 12.2 °F 55% 29.95 in 10.0 mi North 13.8 mph 23.0 mph N/A   Overcast
3:35 PM 26.6 °F 14.3 °F 12.2 °F 55% 29.95 in 10.0 mi NW 16.1 mph 26.5 mph N/A   Overcast
3:55 PM 26.6 °F 14.7 °F 10.4 °F 51% 29.96 in 10.0 mi NW 15.0 mph 21.9 mph N/A   Overcast
4:15 PM 26.6 °F 14.3 °F 12.2 °F 55% 29.97 in 10.0 mi NNW 16.1 mph 24.2 mph N/A   Overcast
4:35 PM 24.8 °F 12.4 °F 10.4 °F 54% 29.98 in 10.0 mi NNW 15.0 mph 24.2 mph N/A   Overcast
4:55 PM 24.8 °F 15.3 °F 14.0 °F 64% 29.98 in 10.0 mi North 9.2 mph 20.7 mph N/A   Overcast
5:15 PM 24.8 °F 11.9 °F 10.4 °F 54% 29.99 in 10.0 mi North 16.1 mph 23.0 mph N/A   Overcast
5:35 PM 24.8 °F 12.4 °F 10.4 °F 54% 29.99 in 10.0 mi NNW 15.0 mph 25.3 mph N/A   Overcast
5:55 PM 24.8 °F 14.0 °F 10.4 °F 54% 30.01 in 10.0 mi North 11.5 mph 25.3 mph N/A   Overcast
6:15 PM 24.8 °F 13.4 °F 10.4 °F 54% 30.02 in 10.0 mi North 12.7 mph 21.9 mph N/A   Overcast
6:35 PM 23.0 °F 10.6 °F 10.4 °F 59% 30.03 in 10.0 mi North 13.8 mph 20.7 mph N/A   Overcast
6:55 PM 23.0 °F 9.6 °F 10.4 °F 59% 30.04 in 10.0 mi NNW 16.1 mph 24.2 mph N/A   Overcast
7:15 PM 23.0 °F 11.7 °F 10.4 °F 59% 30.05 in 10.0 mi NNW 11.5 mph 21.9 mph N/A   Overcast
7:35 PM 23.0 °F 11.1 °F 10.4 °F 59% 30.06 in 10.0 mi NNW 12.7 mph 17.3 mph N/A   Overcast
7:55 PM 21.2 °F 10.1 °F 10.4 °F 63% 30.07 in 10.0 mi NNW 10.4 mph 20.7 mph N/A   Overcast
8:15 PM 21.2 °F 10.1 °F 10.4 °F 63% 30.08 in 10.0 mi NNW 10.4 mph 20.7 mph N/A   Overcast
8:35 PM 21.2 °F 7.8 °F 8.6 °F 58% 30.09 in 10.0 mi NNW 15.0 mph 21.9 mph N/A   Overcast
8:55 PM 21.2 °F 6.8 °F 8.6 °F 58% 30.10 in 10.0 mi NNW 17.3 mph 25.3 mph N/A   Overcast
9:15 PM 19.4 °F 7.2 °F 5.0 °F 54% 30.11 in 10.0 mi NNW 11.5 mph 20.7 mph N/A   Overcast
9:35 PM 19.4 °F 7.9 °F 5.0 °F 54% 30.11 in 10.0 mi NNW 10.4 mph 23.0 mph N/A   Mostly Cloudy
9:55 PM 19.4 °F 7.9 °F 3.2 °F 49% 30.11 in 10.0 mi NNW 10.4 mph 23.0 mph N/A   Overcast
10:15 PM 19.4 °F 7.9 °F 5.0 °F 54% 30.12 in 10.0 mi NW 10.4 mph - N/A   Overcast
10:35 PM 19.4 °F 7.2 °F 5.0 °F 54% 30.12 in 10.0 mi NW 11.5 mph - N/A   Overcast
10:55 PM 19.4 °F 9.5 °F 6.8 °F 58% 30.12 in 10.0 mi NW 8.1 mph - N/A   Overcast
11:15 PM 19.4 °F 8.6 °F 6.8 °F 58% 30.12 in 10.0 mi NNW 9.2 mph - N/A   Overcast
11:35 PM 19.4 °F 7.2 °F 8.6 °F 63% 30.12 in 10.0 mi NNW 11.5 mph - N/A   Overcast
11:55 PM 19.4 °F 10.4 °F 6.8 °F 58% 30.12 in 10.0 mi NW 6.9 mph - N/A   Overcast